Time,TemperatureF,DewpointF,PressureIn,WindDirection,WindDirectionDegrees,WindSpeedMPH,WindSpeedGustMPH,Humidity,HourlyPrecipIn,Conditions,Clouds,dailyrainin,SoftwareType,DateUTC
2013-10-07 01:52:00,36.0,30.0,-100.00,North,-999,0.0,-999.0,79,0.00,,,0.00,,2013-10-07 07:52:00,
2013-10-07 02:03:00,36.0,30.0,-100.00,North,-999,0.0,-999.0,79,0.00,,,0.00,,2013-10-07 08:03:00,
2013-10-07 02:11:00,36.0,30.0,-100.00,North,-999,0.0,-999.0,79,0.00,,,0.00,,2013-10-07 08:11:00,
2013-10-07 02:52:00,34.0,28.0,-100.00,North,-999,0.0,-999.0,79,0.00,,,-99.99,,2013-10-07 08:52:00,
2013-10-07 03:02:00,34.0,28.0,-100.00,North,-999,0.0,-999.0,79,0.00,,,-99.99,,2013-10-07 09:02:00,
2013-10-07 03:11:00,34.0,28.0,-100.00,North,-999,0.0,-999.0,79,0.00,,,-99.99,,2013-10-07 09:11:00,
2013-10-07 03:54:00,32.0,28.0,-100.00,North,-999,0.0,-999.0,85,0.00,,,0.00,,2013-10-07 09:54:00,
2013-10-07 04:03:00,32.0,28.0,-100.00,North,-999,0.0,-999.0,85,0.00,,,0.00,,2013-10-07 10:03:00,
2013-10-07 04:13:00,32.0,28.0,-100.00,North,-999,0.0,-999.0,85,0.00,,,0.00,,2013-10-07 10:13:00,
2013-10-07 05:12:00,32.0,27.0,-100.00,North,-999,0.0,-999.0,83,0.00,,,0.00,,2013-10-07 11:12:00,
2013-10-07 06:52:00,31.0,27.0,-100.00,North,-999,0.0,-999.0,84,0.00,,,0.00,,2013-10-07 12:52:00,
2013-10-07 07:01:00,31.0,27.0,-100.00,North,-999,0.0,-999.0,84,0.00,,,0.00,,2013-10-07 13:01:00,
2013-10-07 07:11:00,31.0,27.0,-100.00,North,-999,0.0,-999.0,84,0.00,,,0.00,,2013-10-07 13:11:00,
2013-10-07 08:52:00,29.0,26.0,-100.00,North,-999,0.0,-999.0,89,0.00,,,0.00,,2013-10-07 14:52:00,
2013-10-07 09:01:00,29.0,26.0,-100.00,North,-999,0.0,-999.0,89,0.00,,,0.00,,2013-10-07 15:01:00,
2013-10-07 10:53:00,39.0,29.0,-100.00,North,-999,0.0,-999.0,68,0.00,,,0.01,,2013-10-07 16:53:00,
2013-10-07 11:03:00,39.0,29.0,-100.00,North,-999,0.0,-999.0,68,0.00,,,0.01,,2013-10-07 17:03:00,
2013-10-07 11:52:00,46.0,33.0,-100.00,North,-999,0.0,-999.0,61,0.00,,,0.00,,2013-10-07 17:52:00,
2013-10-07 12:02:00,46.0,33.0,-100.00,North,-999,0.0,-999.0,61,0.00,,,0.00,,2013-10-07 18:02:00,
2013-10-07 12:12:00,46.0,33.0,-100.00,North,-999,0.0,-999.0,61,0.00,,,0.00,,2013-10-07 18:12:00,
2013-10-07 13:53:00,64.0,31.0,-100.00,North,-999,0.0,-999.0,29,0.00,,,0.01,,2013-10-07 19:53:00,
2013-10-07 14:02:00,64.0,31.0,-100.00,North,-999,0.0,-999.0,29,0.00,,,0.01,,2013-10-07 20:02:00,
2013-10-07 14:12:00,64.0,31.0,-100.00,North,-999,0.0,-999.0,29,0.00,,,0.01,,2013-10-07 20:12:00,
2013-10-07 14:52:00,66.0,29.0,-100.00,North,-999,0.0,-999.0,25,0.00,,,0.01,,2013-10-07 20:52:00,
2013-10-07 15:02:00,66.0,29.0,-100.00,North,-999,0.0,-999.0,25,0.00,,,0.01,,2013-10-07 21:02:00,
2013-10-07 15:12:00,66.0,29.0,-100.00,North,-999,0.0,-999.0,25,0.00,,,0.01,,2013-10-07 21:12:00,
2013-10-07 16:53:00,71.0,23.0,-100.00,North,-999,0.0,-999.0,16,0.00,,,0.00,,2013-10-07 22:53:00,
2013-10-07 17:02:00,71.0,23.0,-100.00,North,-999,0.0,-999.0,16,0.00,,,0.00,,2013-10-07 23:02:00,
2013-10-07 17:12:00,71.0,23.0,-100.00,North,-999,0.0,-999.0,16,0.00,,,0.00,,2013-10-07 23:12:00,
2013-10-07 17:52:00,69.0,18.0,-100.00,North,-999,0.0,-999.0,14,0.00,,,0.01,,2013-10-07 23:52:00,
2013-10-07 18:02:00,69.0,18.0,-100.00,North,-999,0.0,-999.0,14,0.00,,,0.01,,2013-10-08 00:02:00,
2013-10-07 18:11:00,69.0,18.0,-100.00,North,-999,0.0,-999.0,14,0.00,,,0.01,,2013-10-08 00:11:00,
2013-10-07 18:52:00,66.0,17.0,-100.00,North,-999,0.0,-999.0,15,0.00,,,0.01,,2013-10-08 00:52:00,
2013-10-07 19:02:00,66.0,17.0,-100.00,North,-999,0.0,-999.0,15,0.00,,,0.01,,2013-10-08 01:02:00,
2013-10-07 19:12:00,66.0,17.0,-100.00,North,-999,0.0,-999.0,15,0.00,,,0.01,,2013-10-08 01:12:00,
2013-10-07 19:52:00,58.0,30.0,-100.00,North,-999,0.0,-999.0,34,0.00,,,0.01,,2013-10-08 01:52:00,
2013-10-07 20:03:00,58.0,30.0,-100.00,North,-999,0.0,-999.0,34,0.00,,,0.01,,2013-10-08 02:03:00,
2013-10-07 20:11:00,58.0,30.0,-100.00,North,-999,0.0,-999.0,34,0.00,,,0.01,,2013-10-08 02:11:00,
2013-10-07 20:52:00,59.0,24.0,-100.00,North,-999,0.0,-999.0,26,0.00,,,-99.99,,2013-10-08 02:52:00,
2013-10-07 21:02:00,59.0,24.0,-100.00,North,-999,0.0,-999.0,26,0.00,,,-99.99,,2013-10-08 03:02:00,
2013-10-07 21:11:00,59.0,24.0,-100.00,North,-999,0.0,-999.0,26,0.00,,,-99.99,,2013-10-08 03:11:00,
2013-10-07 21:55:00,56.0,24.0,-100.00,North,-999,0.0,-999.0,29,0.00,,,0.01,,2013-10-08 03:55:00,
2013-10-07 22:04:00,56.0,24.0,-100.00,North,-999,0.0,-999.0,29,0.00,,,0.01,,2013-10-08 04:04:00,
2013-10-07 22:14:00,56.0,24.0,-100.00,North,-999,0.0,-999.0,29,0.00,,,0.01,,2013-10-08 04:14:00,
2013-10-07 22:53:00,48.0,27.0,-100.00,North,-999,0.0,-999.0,44,0.00,,,0.01,,2013-10-08 04:53:00,
2013-10-07 23:03:00,48.0,27.0,-100.00,North,-999,0.0,-999.0,44,0.00,,,0.01,,2013-10-08 05:03:00,
2013-10-07 23:13:00,48.0,27.0,-100.00,North,-999,0.0,-999.0,44,0.00,,,0.01,,2013-10-08 05:13:00,